Wind_Speed
13 11 23 19 15 15 10 8 11 19 11 20 18 23 34 36 35 39 36 35 27 29 36 42 41 38 36 38 42 41 45 45 44 42 40 40 36 32 31 31 28 27 26 25
9 24 19 15 13 14 14 15 13 13 12 17 16 15 33 33 33 38 33 34 35 32 33 40 43 41 40 39 42 44 42 44 44 42 39 37 35 32 31 31 30 29 27 26
12 21 17 20 21 20 12 6 11 13 18 13 16 20 26 26 33 34 34 35 41 40 37 37 42 42 43 47 46 45 45 44 45 44 42 43 42 40 38 35 31 30 28 27
8 22 22 27 24 18 13 6 11 14 11 3 3 3 14 23 36 31 39 36 37 44 42 40 41 44 44 48 49 50 48 46 47 48 47 46 46 43 34 30 30 31 31 30
13 21 25 33 27 17 14 20 14 10 10 9 10 6 17 15 26 22 34 36 37 44 44 42 43 46 46 49 52 54 55 52 51 48 49 46 45 42 41 37 35 34 33 32
10 13 28 30 22 12 25 16 10 9 8 3 16 11 17 17 16 7 18 29 35 40 42 41 45 48 51 51 53 56 55 51 55 51 49 47 46 46 46 41 39 35 33 34
19 13 26 35 34 25 29 21 5 3 2 4 8 10 16 17 14 9 9 18 33 37 38 39 42 48 51 50 54 57 65 59 63 58 53 51 49 48 46 43 40 37 36 36
17 11 26 33 28 26 24 15 4 2 3 4 9 7 9 17 13 9 9 7 27 35 39 43 39 45 49 50 51 57 53 56 55 71 57 53 51 52 49 46 43 39 35 32
12 11 13 27 20 32 17 18 7 4 4 3 4 4 7 14 12 8 7 8 16 31 38 42 54 40 48 48 58 57 56 58 67 60 51 56 53 53 52 50 47 42 38 36
14 11 7 23 11 28 24 28 4 6 4 3 3 5 11 18 17 14 6 4 9 21 31 37 41 51 48 46 50 55 54 56 69 45 45 59 71 54 53 54 51 47 43 40
15 9 17 19 13 25 28 30 18 5 3 2 2 1 6 12 18 17 13 9 4 11 24 31 34 50 46 57 48 54 54 61 60 53 51 51 56 56 55 57 54 51 47 44
16 10 17 15 7 17 24 25 26 6 7 5 3 2 3 10 14 15 13 10 8 5 11 21 37 41 54 52 44 56 46 52 60 53 43 59 57 46 46 59 60 54 51 50
20 8 11 10 4 13 21 23 20 13 6 4 2 1 4 7 12 12 11 9 8 6 6 9 23 41 40 49 57 50 47 50 37 50 55 45 52 51 56 47 52 56 60 52
14 7 7 9 20 22 19 20 18 18 4 9 4 9 10 11 11 10 9 7 5 6 8 5 12 30 35 46 38 50 51 44 50 57 43 61 49 55 54 52 49 53 45 53
18 13 19 12 10 10 11 15 15 17 12 4 11 12 12 13 13 12 10 8 6 5 6 7 6 15 26 29 36 44 44 49 46 49 49 47 47 62 50 54 41 50 56 53
20 21 24 13 8 17 12 14 13 16 11 8 12 14 10 17 15 13 12 10 9 8 5 6 5 5 12 17 25 31 38 46 52 40 50 47 50 44 51 50 52 52 61 44
17 22 22 8 18 17 2 7 8 11 11 11 10 11 12 12 12 13 12 11 11 9 9 7 6 6 8 14 17 23 31 34 36 53 51 49 42 53 34 50 56 51 43 46
17 19 11 11 16 4 4 11 10 11 12 12 11 11 13 15 15 11 11 10 10 11 11 10 9 9 8 9 14 19 24 26 30 41 46 41 45 49 50 50 54 57 51 50
14 13 10 6 11 18 17 8 8 14 21 13 5 9 14 15 16 15 13 12 13 10 9 11 11 11 11 11 9 13 18 22 26 28 34 45 46 50 51 52 47 47 48 47
13 14 11 8 4 4 6 10 15 19 19 3 12 17 19 17 17 15 14 12 12 11 9 8 10 12 14 14 15 14 16 19 22 24 28 34 37 43 48 51 52 51 60 52
15 12 13 12 9 12 15 13 17 8 10 16 24 22 19 17 16 14 14 13 12 12 11 9 7 9 12 15 18 18 18 17 19 21 24 27 29 35 40 42 40 45 46 53
10 9 5 5 6 9 12 18 17 22 24 26 23 20 18 17 16 15 13 13 11 11 10 9 8 8 9 10 15 18 21 21 21 21 21 24 28 30 33 37 41 41 40 41
8 15 13 11 21 21 23 22 23 23 25 21 20 18 17 16 16 15 15 14 13 11 10 9 8 8 8 7 9 13 18 21 23 24 24 23 24 25 26 30 33 34 38 39
20 22 21 27 26 25 22 24 23 22 22 19 18 18 16 14 14 14 15 15 14 12 11 10 10 9 8 8 8 9 11 15 19 23 26 28 27 27 26 27 28 30 32 35
21 25 25 31 24 26 25 20 18 20 20 21 18 18 17 15 14 13 13 14 14 13 12 12 11 11 11 9 8 9 9 11 13 17 20 24 29 31 30 30 30 29 29 30
19 21 21 28 23 25 26 22 20 21 22 22 21 17 18 17 15 13 13 14 14 13 12 12 12 12 13 13 12 10 11 11 12 13 16 19 22 26 31 33 33 33 33 33
Wind_Direction
41 31 21 2 340 329 314 296 305 279 286 268 253 244 233 213 210 220 222 215 198 192 196 204 206 210 215 212 210 211 209 207 203 203 201 199 201 199 194 193 194 195 196 197
8 23 9 360 340 329 303 308 310 289 254 275 270 254 226 229 227 212 215 217 207 193 196 201 203 205 205 211 212 211 214 211 207 206 204 203 201 199 199 197 194 195 199 200
21 13 357 357 350 333 337 285 295 307 301 285 282 297 222 215 225 209 211 210 206 202 196 204 206 204 203 205 209 213 213 211 211 207 204 202 202 197 197 197 198 196 198 201
4 5 3 1 354 345 330 295 300 286 319 263 279 273 172 208 217 214 214 209 211 208 203 201 208 207 207 209 209 208 214 213 212 209 207 207 206 200 196 202 204 202 200 200
359 9 4 6 357 11 322 319 298 280 265 289 242 244 353 180 184 185 198 210 213 212 209 203 207 207 210 209 206 211 207 212 213 212 207 210 208 204 198 199 202 205 203 199
39 17 6 355 13 345 342 328 286 253 226 251 246 221 21 15 330 283 180 196 205 208 212 208 205 209 209 209 210 211 209 212 209 216 209 209 208 207 205 200 202 205 206 206
10 13 4 355 6 13 7 22 8 34 170 211 155 114 40 3 356 341 230 184 200 201 205 205 209 209 210 209 211 213 209 204 203 210 212 210 208 210 210 209 206 206 208 209
354 346 0 354 8 359 8 12 69 196 340 314 9 74 41 10 5 349 283 241 193 198 202 204 205 210 212 212 213 214 218 213 216 217 215 212 209 212 212 213 212 212 213 214
343 320 1 357 1 18 11 6 4 293 276 282 43 81 265 2 19 15 292 238 195 196 198 203 211 200 213 212 215 215 213 222 228 224 206 206 216 214 216 215 214 216 214 214
345 308 344 353 359 17 24 22 11 356 11 40 67 41 355 0 3 5 356 273 206 191 194 201 203 216 205 209 227 217 225 218 222 206 207 218 209 213 218 218 216 216 215 215
341 323 328 349 7 13 16 18 16 342 11 338 339 70 3 348 343 352 359 351 250 200 193 198 203 208 217 214 219 225 224 227 226 228 222 218 217 215 222 215 218 218 217 215
347 311 314 328 346 8 1 6 12 10 335 346 299 232 315 334 346 341 344 352 334 245 193 196 205 210 217 211 218 214 225 226 230 222 212 214 217 220 220 214 213 219 217 215
341 320 323 347 335 339 340 346 355 7 342 18 327 230 285 316 324 326 333 349 341 333 280 210 201 211 206 222 225 224 227 227 225 235 235 231 223 225 221 226 216 225 221 211
354 356 335 292 292 302 304 319 337 355 342 311 291 307 313 308 319 316 322 336 349 335 316 273 210 210 219 226 216 225 227 220 227 231 231 229 230 233 225 228 217 216 224 220
11 358 337 349 2 336 312 301 319 338 344 321 313 309 313 328 330 331 328 316 313 314 320 307 255 207 218 220 216 222 222 223 229 225 228 235 227 224 236 231 231 235 226 210
10 353 346 351 327 329 297 284 306 325 323 336 331 331 324 319 321 325 316 303 296 291 292 297 293 250 219 217 219 219 225 230 229 221 228 236 236 236 240 238 239 238 229 235
1 354 343 312 332 325 261 271 306 329 334 310 328 345 334 329 325 312 308 310 298 288 275 264 264 265 235 224 227 219 219 217 216 220 232 227 220 230 224 224 225 220 224 215
355 346 330 307 341 5 288 308 302 320 333 318 301 328 339 335 334 336 319 313 314 293 279 267 254 252 257 236 226 223 227 225 221 221 222 220 227 233 235 234 228 234 222 220
352 339 325 297 307 290 288 278 302 319 324 316 294 329 335 329 326 333 327 322 313 307 289 273 259 241 241 253 241 231 222 227 226 221 221 222 221 223 221 223 228 240 219 223
339 326 303 299 290 267 282 294 302 314 310 354 329 317 316 315 315 321 323 321 317 311 308 284 264 254 244 236 245 241 230 225 226 228 222 224 222 222 225 227 224 233 223 232
320 306 283 278 258 264 274 303 312 297 296 291 309 309 307 300 295 302 307 310 314 315 312 307 292 266 254 244 237 240 240 228 227 224 226 224 223 222 223 227 224 217 218 218
305 305 286 278 258 281 291 299 292 311 299 290 293 295 300 296 290 285 290 295 301 304 309 308 303 291 270 252 246 239 237 236 232 230 224 225 226 223 221 224 228 228 225 223
298 308 292 279 293 306 304 292 295 305 322 296 288 287 294 295 288 283 278 282 289 295 301 303 297 292 290 278 256 249 243 239 235 234 231 228 226 227 226 221 223 227 227 228
306 305 297 308 332 322 302 295 287 298 319 313 287 283 286 289 290 284 281 278 279 284 285 287 288 285 279 276 274 263 250 248 245 238 234 235 232 228 228 227 223 225 227 226
313 298 307 314 328 313 316 307 283 295 310 322 300 279 278 280 281 282 279 274 273 272 270 272 273 276 276 270 265 264 260 253 247 248 245 242 238 238 232 230 228 226 226 226
329 321 305 315 315 315 316 310 300 298 304 314 315 286 272 271 273 276 271 271 268 267 263 263 265 267 268 268 267 261 260 258 256 247 244 247 245 243 242 240 238 233 230 227
Height
3002 3002 3002 3001 2998 2995 2992 2990 2988 2988 2990 2986 2987 2989 2994 3005 3013 3020 3026 3030 3036 3040 3042 3050 3058 3065 3072 3078 3084 3089 3095 3101 3106 3111 3117 3122 3129 3134 3140 3144 3149 3153 3157 3161
3005 3003 3004 3002 2997 2994 2991 2988 2986 2985 2984 2984 2984 2985 2991 3000 3002 3006 3013 3018 3025 3031 3037 3042 3050 3058 3063 3072 3079 3085 3091 3096 3102 3109 3115 3122 3127 3132 3138 3142 3145 3149 3153 3158
3007 3008 3004 3000 2995 2989 2988 2985 2984 2985 2980 2981 2982 2981 2983 2992 2988 2994 3003 3009 3015 3022 3029 3036 3042 3049 3056 3060 3068 3077 3085 3092 3098 3104 3109 3114 3119 3124 3129 3135 3141 3146 3150 3155
3010 3007 3003 2998 2993 2989 2985 2984 2983 2982 2982 2980 2979 2979 2980 2987 2984 2989 2994 2999 3007 3013 3021 3028 3036 3044 3050 3055 3063 3069 3076 3085 3090 3095 3101 3106 3113 3119 3129 3135 3139 3143 3146 3150
3012 3007 3001 2997 2992 2988 2985 2981 2978 2978 2979 2979 2977 2980 2977 2977 2975 2981 2984 2989 2998 3004 3012 3021 3028 3036 3043 3049 3056 3063 3068 3075 3082 3088 3095 3103 3110 3118 3122 3127 3132 3137 3142 3146
3013 3010 3005 3000 2993 2989 2983 2975 2973 2974 2977 2979 2973 2976 2981 2981 2978 2975 2974 2983 2991 2998 3005 3013 3021 3028 3036 3042 3049 3056 3063 3069 3071 3079 3087 3095 3103 3110 3114 3120 3125 3131 3137 3141
3012 3009 3007 3000 2991 2988 2981 2973 2975 2979 2979 2977 2969 2974 2991 2986 2981 2977 2977 2978 2987 2992 2999 3008 3016 3022 3029 3036 3042 3048 3046 3057 3047 3063 3074 3086 3096 3103 3111 3117 3122 3125 3130 3135
3016 3010 3007 3004 3001 2994 2987 2984 2985 2994 2987 2974 2970 2980 2991 2987 2982 2978 2978 2979 2979 2986 2993 3002 3010 3016 3023 3029 3035 3039 3038 3045 3049 3056 3065 3076 3088 3095 3104 3112 3117 3122 3127 3133
3021 3015 3012 3007 3004 3000 2992 2990 2990 2987 2983 2981 2983 2986 2986 2984 2979 2979 2979 2979 2977 2983 2988 2995 3004 3004 3016 3022 3027 3033 3038 3042 3043 3042 3046 3064 3080 3088 3094 3102 3110 3116 3121 3126
3026 3017 3013 3010 3007 3004 2999 2996 2993 2990 2988 2985 2989 2987 2987 2981 2982 2982 2979 2977 2977 2976 2983 2989 2996 3004 3008 3014 3017 3025 3031 3038 3042 3035 3044 3059 3064 3075 3084 3093 3100 3107 3114 3119
3025 3022 3015 3011 3008 3005 3001 2998 2997 2995 2994 2992 2990 2993 2990 2987 2983 2979 2978 2976 2976 2977 2979 2983 2989 2996 3003 3009 3010 3018 3025 3031 3036 3037 3048 3047 3055 3065 3069 3080 3092 3100 3106 3111
3025 3021 3015 3012 3010 3007 3006 3004 3001 2999 2999 2995 2994 2995 2990 2988 2984 2984 2983 2981 2979 2976 2976 2980 2985 2990 2996 3001 3007 3013 3019 3024 3031 3038 3038 3048 3053 3042 3060 3069 3073 3091 3095 3102
3025 3021 3016 3011 3012 3009 3007 3005 3004 3002 3000 2998 2998 2997 2994 2992 2991 2989 2984 2979 2976 2976 2979 2979 2980 2985 2990 2996 3002 3007 3012 3017 3022 3028 3033 3038 3042 3047 3058 3064 3063 3077 3081 3090
3026 3023 3022 3019 3013 3011 3008 3006 3004 3003 3001 2998 2996 2994 2992 2993 2990 2987 2983 2980 2980 2982 2982 2977 2978 2981 2985 2989 2992 2998 3006 3012 3018 3023 3027 3034 3039 3041 3051 3056 3066 3064 3073 3073
3026 3023 3018 3014 3010 3008 3006 3004 3003 3001 3000 2998 2996 2993 2991 2987 2983 2979 2977 2979 2980 2980 2978 2978 2977 2977 2980 2983 2986 2993 2999 3005 3011 3015 3020 3025 3034 3038 3042 3048 3048 3057 3065 3071
3026 3022 3016 3011 3009 3007 3005 3002 3001 3000 2998 2996 2993 2990 2988 2985 2981 2980 2981 2981 2980 2979 2977 2977 2976 2976 2980 2981 2983 2987 2992 2998 3006 3008 3015 3020 3023 3029 3034 3039 3043 3050 3054 3058
3024 3021 3017 3011 3008 3003 3003 3001 3000 2998 2996 2994 2992 2991 2988 2987 2986 2984 2983 2981 2978 2976 2977 2976 2975 2975 2976 2977 2979 2981 2987 2992 2996 3001 3007 3014 3017 3025 3029 3030 3038 3046 3048 3055
3023 3022 3019 3013 3008 3008 3002 3000 2998 2996 2993 2991 2989 2988 2986 2984 2982 2981 2978 2976 2976 2976 2974 2972 2970 2970 2972 2975 2978 2980 2985 2988 2990 2994 3000 3006 3012 3020 3024 3028 3031 3039 3041 3050
3024 3022 3019 3016 3011 3004 2998 2998 2997 2993 2991 2987 2986 2985 2984 2982 2980 2977 2974 2972 2973 2973 2971 2969 2969 2968 2970 2974 2977 2978 2981 2984 2986 2988 2993 2998 3004 3009 3016 3022 3025 3027 3034 3040
3022 3020 3019 3015 3012 3006 2997 2996 2994 2991 2986 2985 2985 2984 2981 2978 2975 2974 2971 2972 2972 2971 2969 2968 2966 2966 2967 2970 2974 2976 2977 2977 2980 2984 2987 2992 2996 3002 3007 3012 3016 3021 3026 3028
3020 3016 3014 3012 3008 2999 2995 2994 2992 2991 2990 2983 2981 2980 2978 2976 2975 2973 2970 2968 2967 2965 2965 2963 2961 2962 2965 2966 2968 2970 2973 2975 2978 2980 2983 2987 2991 2993 2998 3003 3007 3011 3018 3019
3018 3015 3011 3008 3006 2997 2991 2989 2989 2986 2980 2977 2976 2975 2973 2972 2970 2970 2969 2969 2967 2966 2964 2961 2960 2961 2963 2964 2965 2966 2969 2971 2974 2976 2978 2982 2985 2987 2990 2995 3000 3004 3007 3010
3013 3011 3009 3006 2996 2992 2987 2983 2981 2978 2975 2971 2970 2969 2968 2967 2966 2965 2965 2964 2963 2961 2958 2958 2960 2961 2961 2961 2963 2962 2963 2965 2967 2971 2975 2978 2980 2983 2985 2988 2994 2997 3001 3005
3007 3004 3000 2996 2991 2987 2983 2978 2976 2973 2970 2967 2965 2964 2963 2963 2961 2960 2959 2958 2957 2956 2956 2956 2958 2959 2960 2960 2959 2959 2959 2960 2963 2965 2968 2971 2975 2977 2981 2983 2986 2990 2995 2998
3006 2999 2994 2987 2985 2979 2976 2971 2970 2968 2965 2963 2960 2958 2958 2958 2958 2957 2956 2955 2955 2954 2955 2956 2956 2957 2958 2958 2957 2957 2957 2958 2959 2959 2961 2963 2967 2970 2973 2977 2982 2985 2987 2990
3000 2995 2990 2983 2979 2975 2970 2966 2964 2963 2961 2958 2955 2953 2952 2953 2953 2953 2952 2952 2952 2952 2953 2954 2954 2954 2954 2956 2954 2953 2954 2955 2955 2956 2958 2959 2960 2961 2964 2968 2973 2976 2978 2980